Wheeling, WV

10:50 PM EDT on June 27, 2017 (GMT -0400)
Wheeling-Ohio County

Weather History for KHLG - May, 2014

Change the Weather History Date:

Tuesday, May 13, 2014

  Actual Average Record
Temperature  
Mean Temperature 74 °F 59 °F  
Max Temperature 86 °F 69 °F 87 °F (1944)
Min Temperature 62 °F 49 °F 27 °F (1941)
Degree Days  
Heating Degree Days 0 7  
Month to date heating degree days 77 103  
Since 1 July heating degree days 5852 5461  
Cooling Degree Days 9    
Month to date cooling degree days 27  
Year to date cooling degree days 38  
Growing Degree Days 24 (Base 50)    
Moisture  
Dew Point 61 °F    
Average Humidity 66    
Maximum Humidity 90    
Minimum Humidity 42    
Precipitation  
Precipitation 0.01 in 0.13 in 1.30 in (1931)
Month to date precipitation 2.18 1.65  
Sea Level Pressure  
Sea Level Pressure 30.06 in    
Wind  
Wind Speed 10 mph (South)    
Max Wind Speed 29 mph    
Max Gust Speed 40 mph    
Visibility 10 miles    
Events      
T = Trace of Precipitation, MM = Missing Value Source: NWS Daily Summary

Daily Weather History Graph

Daily Weather History Graph

Search for Another Location

Airport or City:

Trip Planner

Search our weather history database for the weather conditions in past years. The results will help you decide how hot, cold, wet, or windy it might be!

Date:

Astronomy

May. 13, 2014 Rise Set
Actual Time 6:08 AM EDT 8:29 PM EDT
Civil Twilight 5:38 AM EDT 9:00 PM EDT
Nautical Twilight 5:00 AM EDT 9:38 PM EDT
Astronomical Twilight 4:19 AM EDT 10:20 PM EDT
Moon 7:29 PM EDT (5/13) 5:24 AM EDT (5/13)
Length of Visible Light 15h 21m
Length of Day
14h 20m
Waxing Gibbous, 98% of the Moon is Illuminated
May 13
Waxing Gibbous
May 14
Full
May 21
Last Quarter
May 28
New
Jun 5
First Quarter

Hourly Weather History & Observations

Time (EDT) Temp. Heat Index Dew Point Humidity Pressure Visibility Wind Dir Wind Speed Gust Speed Precip Events Conditions
12:53 AM 69.1 °F - 64.9 °F 87% 30.10 in 10.0 mi NNE 13.8 mph - N/A   Mostly Cloudy
2:53 AM 63.0 °F - 59.0 °F 87% 30.09 in 10.0 mi ESE 9.2 mph - N/A   Clear
3:53 AM 63.0 °F - 59.0 °F 87% 30.07 in 10.0 mi ESE 10.4 mph - N/A   Mostly Cloudy
4:53 AM 63.0 °F - 59.0 °F 87% 30.07 in 10.0 mi SE 10.4 mph - N/A   Clear
5:53 AM 63.0 °F - 59.0 °F 87% 30.07 in 10.0 mi SE 6.9 mph - N/A   Partly Cloudy
6:53 AM 63.0 °F - 59.0 °F 87% 30.09 in 10.0 mi SE 4.6 mph - N/A   Clear
7:53 AM 68.0 °F - 60.1 °F 76% 30.09 in 10.0 mi SSE 5.8 mph - N/A   Clear
9:53 AM 75.0 °F - 64.9 °F 71% 30.10 in 10.0 mi South 9.2 mph - N/A   Clear
10:53 AM 78.1 °F - 66.0 °F 66% 30.08 in 10.0 mi SW 8.1 mph - N/A   Clear
12:53 PM 80.1 °F 81.9 °F 64.9 °F 60% 30.08 in 10.0 mi WSW 9.2 mph 17.3 mph N/A   Mostly Cloudy
1:53 PM 84.0 °F 84.9 °F 63.0 °F 49% 30.06 in 10.0 mi SW 13.8 mph 18.4 mph N/A   Clear
2:53 PM 86.0 °F 85.7 °F 60.1 °F 41% 30.04 in 10.0 mi West 10.4 mph 18.4 mph N/A   Clear
3:53 PM 86.0 °F 85.7 °F 60.1 °F 41% 30.02 in - North - - N/A   Clear
4:53 PM - - - N/A% 30.05 in - North - - N/A   Clear
5:53 PM - - - N/A% 30.04 in - North - - N/A   Partly Cloudy
6:53 PM 84.0 °F 84.4 °F 61.0 °F 46% 30.02 in 10.0 mi SW 8.1 mph - N/A   Clear
7:53 PM 82.0 °F 82.7 °F 61.0 °F 49% 30.03 in 10.0 mi SW 5.8 mph - N/A   Clear
8:53 PM 79.0 °F - 62.1 °F 56% 30.04 in 10.0 mi South 8.1 mph - N/A   Clear
9:53 PM 77.0 °F - 62.1 °F 60% 30.05 in 10.0 mi South 8.1 mph - N/A   Partly Cloudy
10:53 PM 75.0 °F - 62.1 °F 64% 30.06 in 10.0 mi South 10.4 mph - N/A   Clear
11:53 PM 73.9 °F - 59.0 °F 59% 30.08 in 10.0 mi South 15.0 mph - N/A   Mostly Cloudy